1499122800.56,40667,16.38,73946.8,-2.29,-18.25,-20.89,0,*57
1499122801.82,40668,16.38,73944.8,-2.29,-19.91,-25.71,0,*54
1499122803.09,40669,16.38,73928.3,-2.29,-23.09,-27.35,0,*5F
1499122804.35,40670,16.38,73942.0,-2.29,-25.55,-27.67,0,*5F
1499122805.58,40671,16.38,73940.8,-2.29,-21.63,-24.93,0,*57
1499122806.84,40672,16.38,73942.3,-2.29,-22.87,-28.21,0,*58
1499122808.12,40673,16.31,73910.0,-2.29,-22.31,-23.69,0,*53
1499122809.36,40674,16.38,73948.0,-2.29,-22.27,-26.39,0,*53
1499122810.6,40675,16.38,73926.3,-2.29,-25.65,-30.67,0,*5F
1499122811.87,40676,16.38,73926.3,-2.29,-29.61,-32.75,0,*55
1499122813.13,40677,16.31,73936.5,-2.27,-27.99,-30.95,0,*5F
1499122814.38,40678,16.38,73954.0,-2.29,-27.03,-29.39,0,*53
1499122815.63,40679,16.38,73920.8,-2.31,-26.33,-30.45,0,*5A
1499122816.91,40680,16.38,73922.8,-2.29,-26.71,-29.17,0,*5C
1499122818.16,40681,16.38,73888.5,-2.29,-26.71,-29.45,0,*5A
1499122819.4,40682,16.38,73878.5,-2.27,-25.49,-27.99,0,*50
1499122820.63,40683,16.38,73928.0,-2.27,-23.23,-26.49,0,*57
1499122821.89,40684,16.31,73916.0,-2.27,-23.99,-28.47,0,*51
1499122823.13,40685,16.38,73938.0,-2.27,-26.33,-31.29,0,*55
1499122824.38,40686,16.38,73936.3,-2.29,-27.67,-30.67,0,*53
1499122825.65,40687,16.38,73936.8,-2.27,-26.97,-30.89,0,*52
1499122826.92,40688,16.31,73956.5,-2.29,-29.17,-32.69,0,*58
1499122828.18,40689,16.38,73962.8,-2.29,-29.39,-32.35,0,*5C
1499122829.42,40690,16.38,73958.8,-2.29,-29.07,-27.89,0,*5A
1499122830.68,40691,16.38,73932.8,-2.29,-22.63,-22.17,0,*50
1499122831.92,40692,16.38,73872.0,-2.29,-21.47,-20.73,0,*56
1499122833.14,40693,16.38,73872.5,-2.29,-20.25,-18.83,0,*56
1499122834.37,40694,16.38,73878.0,-2.29,-20.09,-19.95,0,*59
1499122835.61,40695,16.31,73928.5,-2.27,-19.99,-23.23,0,*51
1499122836.85,40696,16.38,73954.5,-2.27,-18.99,-24.41,0,*50
1499122838.09,40697,16.31,73926.3,-2.29,-22.57,-27.03,0,*51
1499122839.34,40698,16.38,73926.0,-2.29,-25.35,-26.13,0,*5D
1499122840.61,40699,16.38,73944.3,-2.29,-24.57,-26.13,0,*59
1499122841.87,40700,16.31,73938.5,-2.27,-23.69,-25.97,0,*53
1499122843.11,40701,16.38,73954.8,-2.27,-24.67,-25.65,0,*56
1499122844.32,40702,16.38,73934.3,-2.27,-22.11,-25.09,0,*58
1499122845.57,40703,16.31,73942.3,-2.29,-22.07,-25.81,0,*50
1499122846.78,40704,16.31,73908.5,-2.27,-21.13,-24.05,0,*52
1499122848.04,40705,16.31,73926.0,-2.29,-22.11,-24.25,0,*5E
1499122849.28,40706,16.38,73934.5,-2.29,-22.57,-25.49,0,*54
1499122850.53,40707,16.38,73942.5,-2.27,-24.15,-29.13,0,*58
1499122851.75,40708,16.38,73944.3,-2.27,-27.67,-32.01,0,*58
1499122853.01,40709,16.38,73926.8,-2.27,-29.17,-31.39,0,*58
1499122854.3,40710,16.38,73948.5,-2.29,-29.35,-31.91,0,*5C
1499122855.56,40711,16.38,73934.0,-2.29,-28.37,-31.61,0,*51
1499122856.8,40712,16.38,73928.0,-2.23,-28.37,-31.11,0,*5F
1499122858.01,40713,16.38,73920.5,-2.27,-27.51,-28.85,0,*50
1499122859.27,40714,16.31,73938.0,-2.27,-25.45,-27.99,0,*52
1499122860.51,40715,16.38,73940.5,-2.27,-26.13,-31.05,0,*51
1499122861.74,40716,16.38,73936.0,-2.27,-29.01,-31.67,0,*5A
1499122863.01,40717,16.38,73942.0,-2.27,-29.89,-32.79,0,*57
1499122864.3,40718,16.38,73950.3,-2.29,-29.73,-32.75,0,*5F
1499122865.53,40719,16.38,73942.0,-2.27,-30.01,-32.91,0,*57
1499122866.82,40720,16.31,73954.0,-2.29,-29.39,-31.73,0,*5F
1499122868.08,40721,16.38,73946.8,-2.29,-27.29,-30.05,0,*51
1499122869.31,40722,16.31,73952.0,-2.29,-28.31,-31.33,0,*50
1499122870.58,40723,16.38,73954.5,-2.29,-28.37,-31.61,0,*50
1499122871.86,40724,16.31,73950.3,-2.29,-29.17,-32.07,0,*57
1499122873.11,40725,16.38,73946.0,-2.27,-28.85,-31.61,0,*51
1499122874.33,40726,16.31,73952.8,-2.29,-26.23,-30.23,0,*59
1499122875.59,40727,16.38,73954.0,-2.29,-26.87,-27.35,0,*57
1499122876.85,40728,16.38,73936.8,-2.29,-21.83,-23.89,0,*58
1499122878.08,40729,16.31,73926.3,-2.27,-18.55,-22.03,0,*55
1499122879.34,40730,16.31,73910.8,-2.29,-17.21,-22.63,0,*59
1499122880.58,40731,16.31,73912.8,-2.29,-18.83,-24.57,0,*5E
1499122881.79,40732,16.31,73914.0,-2.27,-20.25,-28.31,0,*58
1499122883.02,40733,16.31,73932.3,-2.29,-24.05,-29.61,0,*55
1499122884.31,40734,16.38,73960.3,-2.29,-25.55,-31.91,0,*50
1499122885.55,40735,16.31,73958.5,-2.29,-28.53,-32.39,0,*5B
1499122886.81,40736,16.31,73968.3,-2.29,-29.61,-32.97,0,*5C
1499122888.1,40737,16.31,73944.8,-2.29,-29.89,-32.97,0,*5B
1499122889.34,40738,16.38,73948.3,-2.27,-29.89,-32.91,0,*5C
1499122890.59,40739,16.31,73954.3,-2.29,-30.05,-33.15,0,*52
1499122891.84,40740,16.31,73954.5,-2.29,-29.57,-32.69,0,*59
1499122893.1,40741,16.38,73944.5,-2.29,-29.45,-31.85,0,*5A
1499122894.37,40742,16.31,73938.5,-2.29,-28.21,-32.51,0,*50
1499122895.58,40743,16.38,73948.8,-2.31,-30.23,-33.15,0,*52
1499122896.83,40744,16.38,73954.0,-2.31,-30.39,-33.31,0,*58
1499122898.06,40745,16.38,73956.8,-2.33,-30.33,-33.21,0,*50
1499122899.32,40746,16.31,73966.3,-2.33,-30.45,-33.31,0,*53
1499122900.55,40747,16.31,73938.3,-2.33,-30.33,-33.21,0,*52
1499122901.79,40748,16.38,73952.8,-2.31,-30.23,-33.31,0,*5F
1499122903.03,40749,16.38,73956.0,-2.31,-30.27,-33.31,0,*5A
1499122904.3,40750,16.31,73954.3,-2.33,-29.95,-32.63,0,*57
1499122905.54,40751,16.31,73958.3,-2.31,-28.21,-30.27,0,*58
1499122906.77,40752,16.31,73946.0,-2.33,-27.55,-31.05,0,*54
1499122908.04,40753,16.31,73944.5,-2.33,-28.21,-29.83,0,*5E
1499122909.31,40754,16.31,73938.8,-2.33,-24.41,-25.23,0,*55
1499122910.55,40755,16.31,73930.5,-2.31,-20.53,-23.43,0,*51
1499122911.82,40756,16.38,73938.8,-2.33,-19.57,-22.67,0,*59
1499122913.05,40757,16.31,73952.0,-2.33,-18.79,-21.09,0,*5E
1499122914.32,40758,16.31,73956.3,-2.31,-17.41,-17.97,0,*55
1499122915.59,40759,16.31,73958.3,-2.31,-15.89,-19.61,0,*55
1499122916.87,40760,16.31,73970.5,-2.33,-18.01,-24.87,0,*56
1499122918.16,40761,16.31,73946.5,-2.29,-22.73,-30.61,0,*5D
1499122919.42,40762,16.31,73940.3,-2.33,-27.07,-32.29,0,*5D
1499122920.64,40763,16.38,73932.8,-2.31,-27.71,-31.17,0,*51
1499122921.87,40764,16.31,73954.8,-2.33,-27.89,-31.79,0,*5B
1499122923.14,40765,16.31,73944.8,-2.33,-28.05,-31.17,0,*59
1499122924.41,40766,16.38,73964.0,-2.33,-28.21,-31.79,0,*54
1499122925.69,40767,16.31,73952.8,-2.33,-29.29,-32.07,0,*56
1499122926.94,40768,16.31,73954.0,-2.33,-29.67,-33.03,0,*56
1499122928.19,40769,16.31,73960.0,-2.33,-30.01,-33.21,0,*5F
1499122929.47,40770,16.31,73930.3,-2.31,-29.89,-32.07,0,*58
1499122930.76,40771,16.31,73948.8,-2.33,-29.39,-32.75,0,*55
1499122932.01,40772,16.31,73958.3,-2.33,-29.83,-33.37,0,*50
1499122933.22,40773,16.31,73958.8,-2.35,-30.27,-33.55,0,*55
1499122934.45,40774,16.31,73968.8,-2.35,-30.51,-33.55,0,*53
1499122935.68,40775,16.31,73958.3,-2.35,-30.61,-33.67,0,*50
1499122936.89,40776,16.31,73920.0,-2.35,-30.67,-33.83,0,*5F
1499122938.15,40777,16.31,73938.3,-2.37,-30.51,-33.21,0,*51
1499122939.38,40778,16.31,73924.3,-2.35,-30.51,-33.55,0,*5F
1499122940.66,40779,16.31,73966.3,-2.37,-30.39,-33.43,0,*55
1499122941.93,40780,16.31,73960.5,-2.37,-29.45,-32.63,0,*53
1499122943.17,40781,16.31,73952.5,-2.37,-27.29,-30.23,0,*50
1499122944.44,40782,16.31,73954.8,-2.37,-26.97,-28.85,0,*52
1499122945.67,40783,16.31,73962.0,-2.35,-27.19,-27.77,0,*54
1499122946.87,40784,16.31,73958.5,-2.35,-25.91,-29.57,0,*5D
1499122948.11,40785,16.31,73958.0,-2.35,-24.61,-29.39,0,*5A
1499122949.41,40786,16.31,73956.8,-2.37,-24.21,-28.63,0,*51
1499122950.66,40787,16.31,73952.0,-2.37,-25.29,-29.57,0,*5F
1499122951.95,40788,16.31,73970.3,-2.37,-26.13,-29.01,0,*59
1499122953.23,40789,16.31,73976.3,-2.37,-25.81,-28.43,0,*57
1499122954.5,40790,16.31,73970.3,-2.37,-27.07,-30.55,0,*5D
1499122955.74,40791,16.31,73970.8,-2.35,-28.21,-32.23,0,*56
1499122957.02,40792,16.31,73972.5,-2.37,-29.17,-33.09,0,*5A
1499122958.23,40793,16.31,73970.5,-2.35,-30.11,-33.15,0,*5A
1499122959.44,40794,16.31,73954.8,-2.35,-30.11,-33.03,0,*5A
1499122960.71,40795,16.31,73942.0,-2.37,-29.83,-32.97,0,*56
1499122961.95,40796,16.31,73970.3,-2.39,-29.57,-33.31,0,*5F
1499122963.21,40797,16.31,73970.0,-2.39,-30.39,-33.43,0,*5B
1499122964.45,40798,16.31,73968.3,-2.39,-30.55,-33.67,0,*58
1499122965.69,40799,16.31,73970.0,-2.39,-30.73,-33.67,0,*5D
1499122966.94,40800,16.31,73968.3,-2.41,-30.77,-33.83,0,*53
1499122968.18,40801,16.31,73966.3,-2.39,-30.77,-33.95,0,*5A
1499122969.46,40802,16.31,73974.5,-2.41,-30.61,-33.77,0,*5D
1499122970.71,40803,16.31,73966.8,-2.39,-30.61,-33.61,0,*54
1499122971.96,40804,16.31,73970.5,-2.41,-30.55,-33.67,0,*5D
1499122973.2,40805,16.31,73972.0,-2.39,-30.73,-33.83,0,*5D
1499122974.46,40806,16.31,73952.8,-2.41,-30.45,-33.43,0,*58
1499122975.72,40807,16.31,73950.3,-2.39,-30.05,-33.27,0,*50
1499122976.95,40808,16.31,73964.5,-2.41,-30.23,-33.03,0,*52
1499122978.21,40809,16.31,73964.0,-2.41,-29.07,-31.61,0,*5B
1499122979.48,40810,16.31,73944.8,-2.41,-28.85,-30.95,0,*52
1499122980.73,40811,16.31,73920.0,-2.41,-29.17,-30.23,0,*54
1499122982.02,40812,16.31,73930.3,-2.41,-27.83,-28.05,0,*59
1499122983.3,40813,16.31,73950.3,-2.41,-24.25,-27.45,0,*5C
1499122984.54,40814,16.31,73972.8,-2.41,-24.35,-30.23,0,*5C
1499122985.8,40815,16.31,73980.0,-2.41,-27.83,-32.35,0,*56
1499122987.09,40816,16.31,73968.5,-2.41,-29.51,-32.85,0,*5F
1499122988.36,40817,16.31,73946.0,-2.41,-29.95,-32.75,0,*59
1499122989.61,40818,16.31,73966.5,-2.41,-30.05,-33.03,0,*57
1499122990.85,40819,16.31,73962.3,-2.41,-30.23,-32.91,0,*58
1499122992.06,40820,16.31,73956.8,-2.39,-30.23,-32.69,0,*5A
1499122993.32,40821,16.31,73942.8,-2.41,-30.27,-32.19,0,*57
1499122994.53,40822,16.31,73944.0,-2.39,-30.23,-31.67,0,*55
1499122995.76,40823,16.31,73916.0,-2.39,-29.61,-30.83,0,*51
1499122997.02,40824,16.31,73898.0,-2.39,-29.01,-30.95,0,*57
1499122998.26,40825,16.31,73894.0,-2.41,-28.37,-30.11,0,*51
1499122999.52,40826,16.31,73884.3,-2.41,-27.29,-28.21,0,*58
1499123000.79,40827,16.31,73920.3,-2.39,-24.67,-24.71,0,*56
1499123002.05,40828,16.31,73988.0,-2.41,-23.99,-24.97,0,*58
1499123003.32,40829,16.31,73964.3,-2.41,-24.71,-27.51,0,*51
1499123004.58,40830,16.31,73942.0,-2.41,-25.39,-29.35,0,*58
1499123005.79,40831,16.31,73950.5,-2.39,-27.89,-32.35,0,*55
1499123007.05,40832,16.31,73962.3,-2.39,-29.73,-33.31,0,*58
1499123008.31,40833,16.31,73958.0,-2.41,-30.05,-33.15,0,*59
1499123009.56,40834,16.31,73962.0,-2.39,-29.57,-32.19,0,*53
1499123010.8,40835,16.31,73958.5,-2.39,-28.21,-28.15,0,*55
1499123012.06,40836,16.31,73942.8,-2.41,-23.23,-25.87,0,*56
1499123013.32,40837,16.31,73944.8,-2.41,-23.99,-27.29,0,*50
1499123014.59,40838,16.31,73934.5,-2.41,-23.99,-26.03,0,*56
1499123015.84,40839,16.31,73948.3,-2.41,-25.13,-29.17,0,*59
1499123017.06,40840,16.31,73950.8,-2.39,-28.85,-32.23,0,*57
1499123018.33,40841,16.31,73966.8,-2.41,-29.07,-32.07,0,*54
1499123019.59,40842,16.31,73946.0,-2.43,-29.13,-31.51,0,*50
1499123020.86,40843,16.31,73940.5,-2.41,-29.35,-32.51,0,*54
1499123022.09,40844,16.31,73946.8,-2.41,-30.11,-33.15,0,*5C
1499123023.37,40845,16.31,73952.5,-2.41,-30.39,-33.31,0,*51
1499123024.64,40846,16.31,73958.5,-2.41,-30.55,-33.49,0,*57
1499123025.92,40847,16.31,73960.8,-2.41,-30.61,-33.61,0,*5B
1499123027.13,40848,16.31,73962.3,-2.43,-30.67,-33.67,0,*56
1499123028.37,40849,16.31,73966.5,-2.43,-30.61,-33.37,0,*54
1499123029.6,40850,16.31,73954.3,-2.45,-29.23,-29.39,0,*51
1499123030.83,40851,16.31,73934.0,-2.43,-24.87,-22.11,0,*54
1499123032.05,40852,16.31,73908.3,-2.43,-20.59,-23.79,0,*5F
1499123033.31,40853,16.31,73918.3,-2.41,-24.51,-28.05,0,*50
1499123034.56,40854,16.31,73940.0,-2.43,-26.33,-31.01,0,*5F
1499123035.84,40855,16.31,73940.0,-2.41,-28.75,-29.51,0,*5C
1499123037.08,40856,16.31,73926.5,-2.41,-23.59,-24.05,0,*56
1499123038.29,40857,16.31,73924.5,-2.43,-21.39,-26.39,0,*5C
1499123039.53,40858,16.31,73942.5,-2.43,-24.21,-27.71,0,*52
1499123040.76,40859,16.31,73954.3,-2.43,-23.13,-28.75,0,*5E
1499123042.05,40860,16.31,73970.5,-2.41,-26.97,-32.85,0,*5B
1499123043.31,40861,16.31,73958.8,-2.41,-30.11,-33.27,0,*5A
1499123044.58,40862,16.31,73954.3,-2.41,-28.59,-31.45,0,*5A
1499123045.82,40863,16.31,73952.8,-2.41,-28.53,-32.01,0,*52
1499123047.08,40864,16.31,73952.5,-2.41,-27.99,-31.45,0,*5F
1499123048.35,40865,16.31,73934.0,-2.41,-28.53,-29.35,0,*59
1499123049.61,40866,16.31,73936.8,-2.41,-25.71,-26.65,0,*5D
1499123050.88,40867,16.31,73946.3,-2.41,-23.99,-25.49,0,*51
1499123052.13,40868,16.31,73956.8,-2.41,-19.95,-23.29,0,*5B
1499123053.42,40869,16.31,73962.3,-2.41,-24.15,-27.19,0,*5B
1499123054.68,40870,16.31,73912.3,-2.41,-21.53,-23.09,0,*51
1499123055.92,40871,16.31,73892.8,-2.41,-23.89,-24.57,0,*59
1499123057.15,40872,16.31,73926.8,-2.41,-21.47,-22.27,0,*5B
1499123058.36,40873,16.31,73914.5,-2.39,-18.25,-21.47,0,*5E
1499123059.58,40874,16.31,73914.0,-2.39,-18.69,-22.63,0,*54
1499123060.8,40875,16.31,73942.3,-2.39,-16.59,-17.69,0,*54
1499123062.07,40876,16.31,73912.8,-2.39,-14.43,-14.83,0,*59
1499123063.33,40877,16.31,73942.0,-2.41,-13.73,-14.55,0,*58
1499123064.57,40878,16.31,73966.3,-2.39,-13.87,-18.11,0,*5F
1499123065.81,40879,16.31,73964.5,-2.39,-17.83,-23.19,0,*5E
1499123067.05,40880,16.31,73970.8,-2.39,-20.73,-27.19,0,*57
1499123068.26,40881,16.31,73950.8,-2.39,-24.05,-28.69,0,*5B
1499123069.53,40882,16.31,73982.8,-2.39,-27.35,-31.51,0,*5B
1499123070.76,40883,16.31,73952.0,-2.41,-29.61,-33.03,0,*5F
1499123072.0,40884,16.31,73958.0,-2.39,-30.05,-33.03,0,*5D
1499123073.21,40885,16.31,73962.3,-2.39,-30.27,-33.15,0,*5B
1499123074.48,40886,16.31,73952.5,-2.41,-29.89,-32.35,0,*58
1499123075.75,40887,16.31,73934.3,-2.39,-28.21,-29.51,0,*5D
1499123076.98,40888,16.31,73932.0,-2.39,-24.05,-23.53,0,*50
1499123078.2,40889,16.31,73922.5,-2.39,-21.17,-22.27,0,*55
1499123079.42,40890,16.31,73894.0,-2.39,-20.39,-20.09,0,*5E
1499123080.63,40891,16.31,73888.0,-2.39,-14.61,-14.61,0,*5C
1499123081.89,40892,16.31,73914.8,-2.39,-12.65,-14.51,0,*5E
1499123083.14,40893,16.31,73924.8,-2.39,-12.29,-14.55,0,*53
1499123084.38,40894,16.31,73918.5,-2.39,-11.33,-12.97,0,*54
1499123085.65,40895,16.31,73926.0,-2.39,-11.07,-15.39,0,*51
1499123086.88,40896,16.31,73980.0,-2.39,-12.83,-21.39,0,*5A
1499123088.13,40897,16.31,73964.5,-2.37,-18.69,-28.85,0,*55
1499123089.37,40898,16.31,73966.0,-2.35,-23.79,-30.17,0,*53
1499123090.6,40899,16.31,73956.5,-2.37,-22.07,-25.13,0,*58
1499123091.86,40900,16.31,73948.5,-2.37,-23.79,-29.13,0,*5D
1499123093.09,40901,16.31,73944.5,-2.35,-27.35,-30.27,0,*5D
1499123094.36,40902,16.31,73944.3,-2.35,-28.05,-31.23,0,*57
1499123095.65,40903,16.31,73948.5,-2.37,-29.35,-32.97,0,*5A
1499123096.91,40904,16.31,73936.8,-2.37,-30.33,-33.09,0,*55
1499123098.17,40905,16.31,73932.8,-2.37,-30.17,-33.03,0,*58
1499123099.41,40906,16.31,73932.0,-2.35,-29.23,-32.45,0,*55
1499123100.67,40907,16.31,73936.8,-2.35,-27.45,-30.51,0,*5D
1499123101.96,40908,16.31,73942.8,-2.37,-29.13,-32.45,0,*5A
1499123103.25,40909,16.31,73936.5,-2.37,-30.01,-33.27,0,*55
1499123104.51,40910,16.31,73936.5,-2.37,-30.23,-33.27,0,*5D
1499123105.77,40911,16.31,73942.8,-2.35,-30.01,-32.79,0,*54
1499123107.03,40912,16.31,73940.3,-2.35,-28.25,-29.39,0,*56
1499123108.28,40913,16.31,73930.0,-2.35,-25.45,-28.79,0,*59
1499123109.54,40914,16.31,73932.0,-2.37,-28.79,-32.35,0,*5D
1499123110.81,40915,16.31,73946.0,-2.37,-30.17,-33.21,0,*59
1499123112.1,40916,16.31,73946.5,-2.37,-30.17,-33.09,0,*50
1499123113.34,40917,16.31,73940.8,-2.35,-29.61,-31.95,0,*5D
1499123114.62,40918,16.31,73926.8,-2.37,-27.99,-29.01,0,*5D
1499123115.89,40919,16.31,73874.3,-2.35,-28.21,-28.05,0,*57
1499123117.15,40920,16.31,73844.0,-2.37,-22.37,-20.35,0,*59
1499123118.36,40921,16.31,73854.8,-2.35,-19.95,-18.49,0,*5A
1499123119.65,40922,16.31,73926.8,-2.37,-19.41,-20.83,0,*5F
1499123120.89,40923,16.31,73944.5,-2.35,-21.27,-25.13,0,*5B
1499123122.1,40924,16.31,73940.8,-2.35,-24.77,-27.71,0,*5A
1499123123.3,40925,16.31,73954.3,-2.35,-25.23,-29.23,0,*52
1499123124.52,40926,16.31,73956.0,-2.35,-26.45,-30.83,0,*50
1499123125.75,40927,16.31,73954.5,-2.35,-26.55,-29.83,0,*58
1499123126.96,40928,16.31,73942.8,-2.35,-25.35,-27.07,0,*50
1499123128.25,40929,16.31,73930.3,-2.37,-21.87,-23.95,0,*51
1499123129.48,40930,16.31,73938.5,-2.37,-20.63,-23.39,0,*54
1499123130.71,40931,16.31,73950.3,-2.35,-21.83,-25.19,0,*5C
1499123132.01,40932,16.31,73896.0,-2.37,-22.17,-20.83,0,*55
1499123133.27,40933,16.31,73912.8,-2.37,-17.11,-16.97,0,*54
1499123134.53,40934,16.31,73970.0,-2.37,-21.73,-19.61,0,*54
1499123135.76,40935,16.31,73942.8,-2.35,-20.35,-17.73,0,*59
1499123136.98,40936,16.31,73902.8,-2.35,-16.41,-15.95,0,*56
1499123138.21,40937,16.31,73936.0,-2.35,-13.65,-16.65,0,*58
1499123139.47,40938,16.31,73936.3,-2.33,-18.93,-24.31,0,*53
1499123140.71,40939,16.31,73944.3,-2.33,-25.87,-27.07,0,*5F
1499123141.95,40940,16.31,73934.8,-2.33,-22.37,-22.03,0,*5C
1499123143.2,40941,16.31,73944.5,-2.33,-19.85,-24.57,0,*5B
1499123144.45,40942,16.31,73930.0,-2.33,-25.09,-29.13,0,*5E
1499123145.7,40943,16.31,73936.3,-2.33,-25.19,-29.13,0,*5E
1499123146.97,40944,16.31,73948.5,-2.33,-28.37,-32.07,0,*57
1499123148.23,40945,16.31,73952.0,-2.33,-29.79,-32.79,0,*54
1499123149.49,40946,16.31,73960.8,-2.33,-30.01,-32.91,0,*56
1499123150.76,40947,16.31,73964.5,-2.33,-26.93,-27.89,0,*56
1499123152.0,40948,16.31,73946.5,-2.33,-23.75,-26.45,0,*55
1499123153.23,40949,16.31,73934.3,-2.33,-22.83,-25.19,0,*56
1499123154.52,40950,16.31,73922.0,-2.33,-23.65,-25.71,0,*59
1499123155.82,40951,16.31,73936.8,-2.33,-26.77,-31.39,0,*57
1499123157.08,40952,16.31,73942.0,-2.31,-28.75,-32.07,0,*54
1499123158.32,40953,16.31,73960.0,-2.33,-29.23,-31.79,0,*5F
1499123159.58,40954,16.31,73950.0,-2.33,-28.37,-26.71,0,*52
1499123160.82,40955,16.31,73934.5,-2.33,-23.79,-23.75,0,*53
1499123162.1,40956,16.31,73914.5,-2.33,-16.27,-16.69,0,*56
1499123163.37,40957,16.31,73910.5,-2.33,-12.89,-15.81,0,*52
1499123164.58,40958,16.31,73904.8,-2.35,-13.47,-17.87,0,*5C
1499123165.82,40959,16.31,73918.5,-2.33,-15.07,-16.83,0,*5C
1499123167.07,40960,16.31,73922.0,-2.33,-13.79,-14.19,0,*58
1499123168.32,40961,16.31,73930.3,-2.31,-11.59,-15.25,0,*55
1499123169.56,40962,16.31,73954.3,-2.33,-13.93,-18.11,0,*5A
1499123170.82,40963,16.31,73970.3,-2.33,-16.27,-18.65,0,*52
1499123172.04,40964,16.31,73958.5,-2.31,-17.83,-18.69,0,*54
1499123173.3,40965,16.31,73956.0,-2.31,-18.55,-17.63,0,*54
1499123174.59,40966,16.31,73956.5,-2.33,-17.45,-19.81,0,*59
1499123175.83,40967,16.31,73958.8,-2.31,-21.03,-27.03,0,*5A
1499123177.1,40968,16.31,73946.3,-2.31,-21.53,-24.41,0,*55
1499123178.36,40969,16.31,73914.3,-2.31,-19.23,-19.61,0,*54
1499123179.6,40970,16.31,73932.5,-2.31,-17.21,-22.27,0,*5A
1499123180.87,40971,16.31,73952.5,-2.29,-24.41,-30.23,0,*53
1499123182.16,40972,16.31,73954.0,-2.29,-28.21,-31.51,0,*5E
1499123183.38,40973,16.31,73960.8,-2.27,-29.45,-32.39,0,*5F
1499123184.64,40974,16.31,73958.0,-2.29,-29.57,-32.19,0,*57
1499123185.93,40975,16.31,73952.8,-2.29,-27.99,-30.61,0,*57
1499123187.2,40976,16.31,73926.8,-2.31,-25.71,-26.97,0,*57
1499123188.42,40977,16.31,73904.3,-2.31,-20.73,-20.43,0,*5E
1499123189.65,40978,16.31,73852.3,-2.29,-15.99,-16.59,0,*54
1499123190.93,40979,16.31,73888.5,-2.29,-15.01,-18.31,0,*54
1499123192.19,40980,16.31,73956.0,-2.29,-19.23,-25.35,0,*54
1499123193.45,40981,16.31,73946.5,-2.29,-24.67,-25.19,0,*55
1499123194.71,40982,16.31,73930.0,-2.29,-22.77,-18.41,0,*52
1499123195.94,40983,16.31,73866.8,-2.29,-19.03,-16.37,0,*57
1499123197.19,40984,16.31,73872.0,-2.29,-15.71,-11.33,0,*5A
1499123198.45,40985,16.31,73860.5,-2.29,-11.29,-8.59,0,*66
1499123199.72,40986,16.31,73900.5,-2.29,-8.81,-9.11,0,*52
1499123200.91,40987,16.31,73970.5,-2.27,-8.75,-8.55,0,*57
1499123202.11,40988,16.31,73952.8,-2.27,-8.75,-10.85,0,*6C
1499123203.34,40989,16.31,73968.0,-2.29,-10.93,-19.91,0,*5E
1499123204.58,40990,16.31,73956.8,-2.27,-18.65,-29.01,0,*53
1499123205.85,40991,16.31,73934.8,-2.27,-24.83,-31.95,0,*51
1499123207.08,40992,16.31,73942.0,-2.27,-26.49,-30.51,0,*5F
1499123208.32,40993,16.31,73942.8,-2.27,-24.31,-28.47,0,*5D
1499123209.6,40994,16.31,73946.3,-2.27,-26.33,-30.61,0,*57
1499123210.84,40995,16.31,73918.3,-2.29,-27.29,-30.23,0,*54
1499123212.12,40996,16.31,73916.5,-2.29,-23.69,-26.33,0,*51
1499123213.32,40997,16.31,73924.5,-2.23,-21.77,-26.49,0,*5A
1499123214.57,40998,16.31,73890.3,-2.29,-24.51,-28.31,0,*5F
1499123215.82,40999,16.31,73962.0,-2.27,-24.51,-26.29,0,*57
1499123217.03,41000,16.31,73962.3,-2.27,-24.31,-27.07,0,*54
1499123218.25,41001,16.31,73926.0,-2.27,-28.53,-32.01,0,*5F
1499123219.53,41002,16.31,73918.3,-2.29,-25.55,-26.77,0,*5D
1499123220.77,41003,16.31,73908.0,-2.27,-23.33,-27.07,0,*52
1499123222.03,41004,16.31,73922.3,-2.27,-23.03,-28.47,0,*5D
1499123223.26,41005,16.31,73914.5,-2.27,-24.61,-29.13,0,*5F
1499123224.53,41006,16.31,73946.0,-2.29,-25.71,-30.83,0,*53
1499123225.78,41007,16.31,73920.3,-2.27,-28.53,-30.77,0,*5A
1499123227.06,41008,16.31,73924.5,-2.29,-29.17,-29.39,0,*58
1499123228.32,41009,16.31,73924.3,-2.29,-29.01,-30.45,0,*5D
1499123229.57,41010,16.31,73928.0,-2.29,-26.23,-29.01,0,*52
1499123230.84,41011,16.31,73928.3,-2.29,-26.65,-31.11,0,*59
1499123232.11,41012,16.31,73958.0,-2.29,-28.85,-32.75,0,*5B
1499123233.38,41013,16.31,73956.5,-2.29,-29.95,-33.43,0,*5E
1499123234.63,41014,16.31,73952.3,-2.31,-30.39,-33.61,0,*5E
1499123235.88,41015,16.31,73954.8,-2.31,-30.39,-33.49,0,*55
1499123237.14,41016,16.31,73952.3,-2.31,-30.39,-33.49,0,*56
1499123238.4,41017,16.31,73952.0,-2.31,-30.39,-33.43,0,*5D
1499123239.61,41018,16.31,73950.0,-2.31,-30.23,-33.15,0,*5A
1499123240.84,41019,16.31,73950.0,-2.31,-30.23,-33.27,0,*5A
1499123242.1,41020,16.31,73950.5,-2.31,-30.39,-33.49,0,*53
1499123243.33,41021,16.31,73954.8,-2.31,-30.45,-33.49,0,*59
1499123244.54,41022,16.31,73962.5,-2.31,-29.79,-32.57,0,*53
1499123245.8,41023,16.31,73956.5,-2.31,-30.05,-33.09,0,*5B
1499123247.04,41024,16.31,73958.3,-2.33,-29.95,-31.79,0,*5A
1499123248.3,41025,16.31,73946.5,-2.31,-26.71,-25.03,0,*54
1499123249.52,41026,16.31,73934.0,-2.31,-17.83,-21.17,0,*59
1499123250.76,41027,16.31,73896.8,-2.31,-20.59,-26.71,0,*5C
1499123252.01,41028,16.31,73868.3,-2.33,-22.97,-24.15,0,*51
1499123253.3,41029,16.31,73934.3,-2.33,-17.45,-20.35,0,*5F
1499123254.58,41030,16.31,73974.8,-2.33,-19.85,-29.39,0,*50
1499123255.82,41031,16.31,73960.0,-2.33,-24.77,-28.97,0,*57
1499123257.09,41032,16.31,73944.5,-2.31,-23.99,-28.05,0,*5A
1499123258.37,41033,16.31,73940.0,-2.33,-28.05,-32.63,0,*5C
1499123259.64,41034,16.31,73942.8,-2.33,-30.17,-33.37,0,*51
1499123260.91,41035,16.31,73940.3,-2.33,-29.67,-32.63,0,*5F
1499123262.16,41036,16.31,73942.8,-2.33,-27.19,-31.17,0,*5B
1499123263.43,41037,16.31,73950.0,-2.33,-29.39,-32.91,0,*5B
1499123264.7,41038,16.31,73946.3,-2.33,-27.71,-25.55,0,*58
1499123265.94,41039,16.31,73930.3,-2.35,-24.61,-30.73,0,*5D
1499123267.2,41040,16.31,73932.8,-2.35,-28.59,-31.91,0,*59
1499123268.44,41041,16.31,73924.0,-2.35,-26.45,-27.45,0,*55
1499123269.67,41042,16.31,73926.3,-2.35,-23.19,-21.63,0,*58
1499123270.9,41043,16.31,73934.8,-2.35,-21.67,-23.89,0,*54
1499123272.14,41044,16.31,73922.3,-2.35,-22.37,-25.75,0,*50
1499123273.4,41045,16.25,73912.0,-2.37,-22.07,-26.97,0,*5F
1499123274.66,41046,16.31,73928.0,-2.33,-23.65,-24.31,0,*53
1499123275.9,41047,16.31,73936.5,-2.35,-18.73,-21.27,0,*59
1499123277.15,41048,16.25,73924.8,-2.35,-18.89,-23.95,0,*58
1499123278.38,41049,16.31,73928.3,-2.35,-20.15,-19.99,0,*52
1499123279.64,41050,16.31,73938.3,-2.35,-17.07,-20.19,0,*5F
1499123280.88,41051,16.31,73930.5,-2.35,-16.51,-21.09,0,*5C
1499123282.11,41052,16.31,73950.5,-2.35,-18.89,-24.61,0,*5F
1499123283.34,41053,16.31,73946.5,-2.37,-21.13,-25.35,0,*55
1499123284.59,41054,16.31,73948.3,-2.33,-23.13,-25.61,0,*55
1499123285.83,41055,16.31,73932.5,-2.33,-19.95,-20.59,0,*5D
1499123287.07,41056,16.31,73938.8,-2.33,-18.45,-19.99,0,*54
1499123288.33,41057,16.31,73946.3,-2.33,-18.35,-22.53,0,*5C
1499123289.62,41058,16.31,73956.8,-2.33,-21.27,-26.55,0,*58
1499123290.85,41059,16.31,73948.8,-2.33,-23.89,-27.89,0,*5F
1499123292.12,41060,16.31,73936.8,-2.33,-24.71,-27.77,0,*54
1499123293.39,41061,16.31,73952.5,-2.35,-24.15,-28.63,0,*5B
1499123294.62,41062,16.25,73952.8,-2.35,-26.71,-29.95,0,*50
1499123295.83,41063,16.31,73942.3,-2.35,-26.61,-30.33,0,*54
1499123297.09,41064,16.31,73956.8,-2.35,-27.39,-31.57,0,*5C
1499123298.31,41065,16.25,73932.8,-2.35,-24.93,-27.39,0,*51
1499123299.53,41066,16.31,73958.3,-2.35,-26.07,-29.83,0,*52